Regional Weather Roundup
Issued by NWS

Home | Current Version | Previous Version | Graphics & Text | Print | Product List | Glossary On
Versions: 1 2 3 4 5 6 7 8 9 10 11 12 13 14 15 16 17 18 19 20 21 22 23 24 25 26 27 28 29 30 31 32 33 34 35 36 37 38 39 40 41 42 43 44 45 46 47 48 49 50
000
ASUS45 KPSR 290310
RWRAZ

ARIZONA HOURLY REGIONAL WEATHER ROUNDUP
NATIONAL WEATHER SERVICE PHOENIX AZ
800 PM MST THU APR 28 2016

NOTE: FAIR INDICATES FEW OR NO CLOUDS BELOW 12,000 FEET WITH NO
SIGNIFICANT WEATHER AND/OR OBSTRUCTIONS TO VISIBILITY.

AZZ001>003-036-290400-
NORTHWEST ARIZONA

CITY           SKY/WX    TMP DP  RH WIND       PRES   REMARKS
BULLHEAD CITY  MOCLDY    68  45  42 CALM      29.75R THUNDER
KINGMAN        CLOUDY    50  45  83 SE14      29.80R
$$

AZZ004>008-015-016-018-290400-
NORTH CENTRAL ARIZONA

CITY           SKY/WX    TMP DP  RH WIND       PRES   REMARKS
GRAND CANYON   CLOUDY    38  36  92 S3        29.84R
WILLIAMS       CLOUDY    37  36  93 CALM      29.92R
PRESCOTT       CLOUDY    46  38  73 CALM      29.84R
FLAGSTAFF      PTCLDY    34  31  88 CALM      29.86R
PAYSON         PTCLDY    50  25  37 NW6       29.84R
PAGE           CLOUDY    51  37  58 W10G22    29.77R
$$

AZZ009>014-017-290400-
NORTHEAST ARIZONA

CITY           SKY/WX    TMP DP  RH WIND       PRES   REMARKS
WINSLOW        CLEAR     48  21  34 W8        29.80R
SAINT JOHNS    CLOUDY    51  20  29 SW15      29.81R
WINDOW ROCK    MOCLDY    47   9  21 W8        29.83R
SHOW LOW       PTCLDY    43   7  22 S10       29.85R
$$

AZZ023-290400-
GREATER PHOENIX AREA

CITY           SKY/WX    TMP DP  RH WIND       PRES   REMARKS
PHOENIX        PTCLDY    72  28  19 W12       29.71R
BUCKEYE        PTCLDY    68  32  26 W7        29.74R
GLENDALE       PTCLDY    72  30  21 CALM      29.73R
DEER VALLEY    PTCLDY    68  30  24 NW9       29.72R
SCOTTSDALE     CLEAR     70  25  18 W3        29.74R
MESA-FALCON    PTCLDY   N/A N/A N/A MISG      29.71R
MESA-GATEWAY   PTCLDY    68  25  19 W6        29.74R
CHANDLER       CLEAR     68  25  19 MISG      29.73
$$

AZZ027-028-290400-
SOUTHWEST MARICOPA COUNTY AND PINAL COUNTY

CITY           SKY/WX    TMP DP  RH WIND       PRES   REMARKS
CASA GRANDE    CLEAR     66  27  22 W6        29.76R
$$

AZZ503-504-507>509-290400-
SOUTHEAST ARIZONA

CITY           SKY/WX    TMP DP  RH WIND       PRES   REMARKS
TUCSON         PTCLDY    67  12  12 NW14G21   29.79R
RYAN FIELD     CLEAR     66  19  16 NW14      29.79R
NOGALES        PTCLDY    57  34  41 S8        29.84R
DOUGLAS        PTCLDY    65  25  22 SW18G28   29.79R
SAFFORD        PTCLDY    61  29  29 W22G29    29.74R
$$

AZZ020-021-025-026-031-290400-
SOUTHWEST ARIZONA

CITY           SKY/WX    TMP DP  RH WIND       PRES   REMARKS
YUMA           PTCLDY    69  42  37 W8        29.75R
$$

CAZ031-033-041-043-047-048-061-290400-
SOUTHERN CALIFORNIA

CITY           SKY/WX    TMP DP  RH WIND       PRES   REMARKS
DOWNTOWN L.A.  CLEAR     59  50  72 W3        29.88R
L.A. AIRPORT   PTCLDY    59  51  75 W9        29.89R
SAN DIEGO      MOCLDY    61  50  67 W9        29.95R
BURBANK        CLEAR     59  48  67 SE10      29.87R
ONTARIO        PTCLDY    60  41  49 SW13      29.88R
RIVERSIDE      CLEAR     61  43  51 W5        29.89R
PALM SPRINGS   PTCLDY    73  35  25 NW20G30   29.73R
EL CENTRO NAS  PTCLDY    68  40  35 W20       29.77R
IMPERIAL       CLEAR     69  41  36 W14       29.74R
BLYTHE         MOCLDY    73  40  30 SW16      29.71R
NEEDLES        PTCLDY    67  49  52 SW8       29.72R
$$

NVZ020-UTZ003-290400-
SOUTHERN NEVADA-UTAH

CITY           SKY/WX    TMP DP  RH WIND       PRES   REMARKS
LAS VEGAS      CLOUDY    57  49  74 NW3       29.74R
SALT LAKE CITY CLOUDY    51  32  48 E13       29.79R
$$

NMZ009-TXZ055-290400-
NEW MEXICO-WEST TEXAS

CITY           SKY/WX    TMP DP  RH WIND       PRES   REMARKS
ALBUQUERQUE    MOCLDY    66   6   9 S10       29.73R
EL PASO        CLEAR     74  21  13 W20G28    29.71R
$$


........................KEY........................
SKY/WX - SKY CONDITION/WEATHER
TMP    - TEMPERATURE IN FAHRENHEIT
DP     - DEW POINT IN FAHRENHEIT
RH     - RELATIVE HUMIDITY IN PERCENT
WIND   - DIRECTION AND SPEED IN MILES PER HOUR (MPH)
VRB    - VARIABLE WIND DIRECTION
PRES   - MEAN SEA LEVEL PRESSURE IN INCHES OF MERCURY
         F - FALLING PRESSURE   R - RISING PRESSURE
         S - STEADY PRESSURE
VSB    - VISIBILITY IN MILES
HX     - HEAT INDEX IN FAHRENHEIT
WCI    - WIND CHILL INDEX IN FAHRENHEIT
TC     - TEMPERATURE IN CELSIUS WHICH IS ALSO KNOWN AS
         TEMPERATURE IN CENTIGRADE
AFB    - AIR FORCE BASE
         LUKE AFB IS LUKE AIR FORCE BASE
         DAVIS-MONTHAN IS DAVIS-MONTHAN AIR FORCE BASE
NAS    - NAVAL AIR STATION
         EL CENTRO NAS IS EL CENTRO NAVAL AIR STATION
N/A    - NOT AVAILABLE




USA.gov is the U.S. government's official web portal to all federal, state and local government web resources and services.